Weather History for Rome, NY

Change the Weather History Date:

Thursday, February 14, 2013

  Actual Average Record
Temperature  
Mean Temperature 28 °F -  
Max Temperature 37 °F 32 °F 48 °F (1984)
Min Temperature 18 °F 15 °F -12 °F (1987)
Degree Days  
Heating Degree Days 38    
Moisture  
Dew Point 24 °F    
Average Humidity 79    
Maximum Humidity 96    
Minimum Humidity 54    
Precipitation  
Precipitation 0.06 in - - ()
Sea Level Pressure  
Sea Level Pressure 29.90 in    
Wind  
Wind Speed 2 mph (ESE)    
Max Wind Speed 9 mph    
Max Gust Speed -    
Visibility 7 miles    
Events Snow    
Averages and records for this station are not official NWS values.
T = Trace of Precipitation, MM = Missing Value Source: NWS Daily Summary

Daily Weather History Graph

Daily Weather History Graph

Search for Another Location

Airport:

Trip Planner

Search our weather history database for the weather conditions in past years. The results will help you decide how hot, cold, wet, or windy it might be!

Date:

Astronomy

Feb. 14, 2013 Rise Set
Actual Time 7:00 AM EST 5:31 PM EST
Civil Twilight 6:31 AM EST 6:00 PM EST
Nautical Twilight 5:57 AM EST 6:34 PM EST
Astronomical Twilight 5:24 AM EST 7:07 PM EST
Moon 8:52 AM EST (2/14) 10:42 PM EST (2/14)
Length of Visible Light 11h 29m
Length of Day
10h 30m
Waxing Crescent, 21% of the Moon is Illuminated
Feb 14
Waxing Crescent
Feb 17
First Quarter
Feb 25
Full
Mar 4
Last Quarter
Mar 11
New

Hourly Weather History & Observations

Time (EST) Temp. Windchill Dew Point Humidity Pressure Visibility Wind Dir Wind Speed Gust Speed Precip Events Conditions
12:53 AM 21.0 °F - 18.0 °F 88% 29.80 in 9.0 mi Calm Calm - N/A   Clear
1:53 AM 19.9 °F - 18.0 °F 92% 29.82 in 9.0 mi Calm Calm - N/A   Clear
2:53 AM 18.0 °F - 16.0 °F 92% 29.84 in 8.0 mi Calm Calm - N/A   Partly Cloudy
3:53 AM 19.9 °F - 17.1 °F 89% 29.86 in 8.0 mi Calm Calm - N/A   Overcast
4:53 AM 23.0 °F 18.4 °F 19.9 °F 88% 29.87 in 9.0 mi SE 3.5 mph - N/A   Overcast
5:53 AM 23.0 °F - 19.0 °F 85% 29.89 in 8.0 mi Calm Calm - N/A   Overcast
6:53 AM 24.1 °F - 19.9 °F 84% 29.91 in 9.0 mi Calm Calm - N/A   Overcast
7:53 AM 24.1 °F 19.7 °F 21.0 °F 88% 29.93 in 6.0 mi SSE 3.5 mph - N/A   Overcast
8:31 AM 25.0 °F 20.7 °F 21.0 °F 85% 29.93 in 7.0 mi SE 3.5 mph - N/A   Overcast
8:53 AM 25.0 °F - 21.0 °F 85% 29.95 in 7.0 mi Calm Calm - N/A   Overcast
9:06 AM 26.1 °F - 21.0 °F 81% 29.94 in 7.0 mi Calm Calm - N/A   Overcast
9:53 AM 27.0 °F - 21.9 °F 81% 29.97 in 7.0 mi Calm Calm - N/A   Overcast
10:53 AM 30.0 °F - 23.0 °F 75% 29.97 in 7.0 mi Calm Calm - N/A   Overcast
11:03 AM 30.0 °F - 23.0 °F 75% 29.95 in 7.0 mi Calm Calm - N/A   Overcast
11:53 AM 30.9 °F - 23.0 °F 72% 29.95 in 8.0 mi Calm Calm - N/A   Overcast
12:18 PM 32.0 °F - 21.0 °F 64% 29.92 in 10.0 mi Calm Calm - N/A   Overcast
12:53 PM 33.1 °F 30.0 °F 21.0 °F 61% 29.93 in 10.0 mi North 3.5 mph - N/A   Overcast
1:49 PM 33.8 °F - 21.2 °F 60% 29.90 in 10.0 mi Calm Calm - N/A   Mostly Cloudy
1:53 PM 35.1 °F 32.2 °F 21.0 °F 57% 29.92 in 10.0 mi Variable 3.5 mph - N/A   Mostly Cloudy
2:53 PM 37.0 °F - 21.9 °F 54% 29.92 in 10.0 mi Calm Calm - N/A   Scattered Clouds
3:53 PM 36.0 °F 33.3 °F 23.0 °F 59% 29.91 in 10.0 mi SSE 3.5 mph - N/A   Partly Cloudy
4:53 PM 35.1 °F 30.1 °F 23.0 °F 61% 29.90 in 10.0 mi East 5.8 mph - N/A   Mostly Cloudy
5:53 PM 34.0 °F 27.2 °F 23.0 °F 64% 29.91 in 10.0 mi East 8.1 mph - N/A   Overcast
6:53 PM 34.0 °F 27.2 °F 24.1 °F 67% 29.91 in 10.0 mi ESE 8.1 mph - N/A   Overcast
7:53 PM 34.0 °F 27.2 °F 24.1 °F 67% 29.91 in 10.0 mi East 8.1 mph - N/A   Overcast
8:53 PM 34.0 °F 27.2 °F 24.1 °F 67% 29.91 in 10.0 mi SE 8.1 mph - N/A   Overcast
9:24 PM 34.0 °F 28.8 °F 25.0 °F 70% 29.90 in 3.0 mi SE 5.8 mph - 0.00 in Snow Light Snow
9:30 PM 34.0 °F 31.0 °F 26.1 °F 73% 29.90 in 1.8 mi ESE 3.5 mph - 0.00 in Snow Light Snow
9:50 PM 32.0 °F 27.5 °F 28.4 °F 87% 29.90 in 1.0 mi ESE 4.6 mph - 0.01 in Snow Light Snow
9:53 PM 32.0 °F 26.4 °F 30.0 °F 92% 29.91 in 1.0 mi East 5.8 mph - 0.01 in Snow Light Snow
10:13 PM 32.0 °F 25.6 °F 30.0 °F 92% 29.89 in 0.8 mi East 6.9 mph - 0.02 in Snow Light Snow
10:21 PM 32.0 °F 24.8 °F 30.0 °F 92% 29.89 in 1.2 mi East 8.1 mph - 0.02 in Snow Light Snow
10:32 PM 32.0 °F 24.8 °F 30.0 °F 92% 29.89 in 1.8 mi East 8.1 mph - 0.02 in Snow Light Snow
10:53 PM 32.0 °F 24.2 °F 30.9 °F 96% 29.90 in 1.2 mi ESE 9.2 mph - 0.03 in Snow Light Snow
11:11 PM 32.0 °F 24.8 °F 30.9 °F 96% 29.88 in 1.0 mi ESE 8.1 mph - 0.01 in Snow Light Snow
11:47 PM 33.8 °F 26.4 °F 30.2 °F 87% 29.87 in 2.0 mi East 9.2 mph - 0.02 in Snow Light Snow
11:53 PM 33.1 °F 26.1 °F 32.0 °F 96% 29.88 in 1.8 mi ESE 8.1 mph - 0.02 in Snow Light Snow